User: anonymous   Login
Location: Cronhütte
(48.9135°N, 9.6869°E)
Time: 11:22:01
(UTC+00:00)
Language:

Cosmos 1892 - Orbit

View from above orbital plane
View from above orbital plane
View from above satellite
View from above satellite

Ground track
Ground track

The orbit data is extracted from the following two-line orbital elements,

1 18421U 87088A   24200.56741688  .00018311  00000-0  52632-3 0  9995
2 18421  82.4899 225.6730 0008929 233.3307 126.7117 15.35648323 11481
Epoch (UTC): 18 July 2024 13:37:04
Eccentricity: 0.0008929
inclination: 82.4899°
perigee height: 453 km
apogee height: 465 km
right ascension of ascending node: 225.6730°
argument of perigee: 233.3307°
revolutions per day: 15.35648323
mean anomaly at epoch: 126.7117°
orbit number at epoch: 1148

The dashed part of the orbit path shows where the satellite is in the earth's shadow,  

DLR